[[{"header":{"parameterUnit":"m.s-1","parameterCategory":1,"la1":30.2991,"la2":30.254,"lo1":-89.0895,"lo2":-89.0444,"dy":0.0017,"dx":0.0017,"nx":28,"ny":28,"refTime":"2025-04-22T21:00:00:Z","depth":0,"parameterNumber":2,"parameterNumberName":"U-component_of_WINDS"},"data":[0,0,0,0,0,0,0,0,0,0,0,0,0,0,0,0,0,0,0,0,0,0,0,0,0,0,0,0,0,0,0,0,0,0,0,0,0,0,0,0,0,0,0,0,0,0,0,0,0,0,0,0,0,0,0,0,0,0,-2.1401,-2.1402,0,-2.1446,-2.1446,-2.1447,-2.142,-2.1419,-2.1417,-2.1416,-2.1466,-2.1468,-2.1471,0,0,0,0,0,0,0,0,0,0,0,0,0,-2.1297,-2.1299,-2.1401,-2.1402,-2.1402,-2.1446,-2.1446,-2.1447,-2.142,-2.1419,-2.1417,-2.1416,-2.1465,-2.1468,-2.1471,0,0,0,0,0,0,0,0,0,0,0,0,0,-2.1342,-2.13,-2.1401,-2.1394,-2.1394,-2.1446,-2.1446,-2.1447,-2.1421,-2.1419,-2.1417,-2.1415,-2.1464,-2.1468,-2.1471,-2.1534,0,0,-2.1483,-2.1485,0,0,0,0,0,0,0,0,-2.134,-2.1346,-2.1395,-2.1395,-2.1394,-2.1425,-2.1428,-2.1476,-2.1421,-2.1411,-2.1416,-2.1414,-2.1454,-2.1459,-2.1471,-2.1536,-2.1538,-2.1483,-2.1486,-2.1487,-2.1488,0,0,0,0,0,0,0,-2.1337,-2.1344,-2.1419,-2.1395,-2.1395,-2.139,-2.1394,-2.1437,-2.1443,-2.1411,-2.1409,-2.1415,-2.1454,-2.1468,-2.1472,-2.1539,-2.1483,-2.1487,-2.1489,-2.149,-2.1658,-2.166,0,0,0,0,0,0,-2.1333,-2.1342,-2.1417,-2.142,-2.1362,-2.1394,-2.1398,-2.1417,-2.1442,-2.1444,-2.1416,-2.1413,-2.1462,-2.1468,-2.1474,-2.1549,-2.1487,-2.1491,-2.1493,-2.1656,-2.1659,-2.1661,0,0,0,0,0,0,-2.1331,-2.134,-2.1416,-2.138,-2.139,-2.1397,-2.1419,-2.1419,-2.1433,-2.1446,-2.1447,-2.1429,-2.1461,-2.1469,-2.1519,-2.155,-2.1493,-2.1496,-2.1653,-2.1657,-2.166,-2.1699,0,0,0,0,0,0,-2.1328,-2.134,-2.1362,-2.1381,-2.1392,-2.1459,-2.1421,-2.1422,-2.1439,-2.1436,-2.1459,-2.1461,-2.146,-2.1513,-2.1523,-2.1554,-2.1499,-2.1651,-2.1655,-2.1659,-2.1695,-2.1703,-2.171,0,0,0,0,0,-2.1325,-2.1372,-2.1364,-2.1373,-2.142,-2.146,-2.1467,-2.1464,-2.1442,-2.1465,-2.1474,-2.146,-2.1545,-2.1519,-2.1529,-2.1562,-2.1649,-2.1654,-2.1658,-2.1691,-2.1702,-2.171,0,0,0,0,0,0,-2.1358,-2.1375,-2.1365,-2.142,-2.1439,-2.1456,-2.1485,-2.1474,-2.1501,-2.1497,-2.1494,-2.1499,-2.1552,-2.1562,-2.1532,-2.1625,-2.1594,-2.1601,-2.1615,-2.1625,-2.1633,-2.1629,-2.1502,0,0,0,0,0,-2.1372,-2.1402,-2.1415,-2.1463,-2.1472,-2.1477,-2.1495,-2.1491,-2.1511,-2.152,-2.1532,-2.1553,-2.1585,-2.1606,-2.1635,-2.1697,-2.1702,-2.1725,-2.1732,-2.1739,-2.1745,-2.1779,-2.1789,-2.1677,-2.1677,-2.1677,0,0,-2.1401,-2.1413,-2.1433,-2.147,-2.1484,-2.1517,-2.1484,-2.152,-2.1545,-2.1525,-2.1573,-2.1583,-2.1607,-2.1663,-2.1688,-2.1673,-2.1777,-2.1745,-2.175,-2.1753,-2.1785,-2.1796,-2.1805,-2.168,-2.168,-2.1679,0,0,-2.147,-2.1482,-2.1523,-2.1537,-2.1559,-2.1562,-2.1572,-2.1591,-2.1596,-2.1644,-2.163,-2.1661,-2.1715,-2.1733,-2.1749,-2.1825,-2.1814,-2.1836,-2.1875,-2.1909,-2.1917,-2.1925,-2.1953,-2.1963,-2.1842,-2.1842,-2.1842,0,-2.1503,-2.155,-2.1545,-2.1582,-2.1599,-2.1582,-2.1624,-2.164,-2.1671,-2.1683,-2.1666,-2.1734,-2.1749,-2.1809,-2.1828,-2.1842,-2.1854,-2.1833,-2.1916,-2.1924,-2.1931,-2.1958,-2.1968,-2.1844,-2.1844,-2.1844,-2.1844,0,-2.159,-2.1624,-2.1654,-2.1683,-2.1704,-2.1743,-2.1746,-2.1768,-2.1763,-2.1768,-2.1818,-2.1835,-2.1868,-2.1883,-2.1878,-2.1943,-2.1933,-2.1916,-2.1885,-2.1945,-2.197,-2.198,-2.1848,-2.1847,-2.1846,-2.1846,0,0,-2.1681,-2.1707,-2.1718,-2.1731,-2.1754,-2.1781,-2.182,-2.1852,-2.1871,-2.1893,-2.1927,-2.1974,-2.1959,-2.1977,-2.1975,-2.2004,-2.2064,-2.1984,-2.1984,-2.1998,-2.2138,-2.215,-2.2162,-2.2057,-2.2059,-2.2061,-2.2136,0,-2.1751,-2.1818,-2.1816,-2.1879,-2.191,-2.1895,-2.193,-2.1948,-2.1955,-2.1984,-2.1992,-2.2025,-2.2002,-2.2013,-2.2041,-2.2051,-2.2092,-2.2046,-2.209,-2.2091,-2.2084,-2.2175,-2.2188,-2.2258,-2.2145,-2.2147,-2.2148,0,-2.1842,-2.1866,-2.1932,-2.1951,-2.1964,-2.1995,-2.2024,-2.2051,-2.2073,-2.2076,-2.2097,-2.209,-2.2132,-2.21,-2.2158,-2.2127,-2.2145,-2.2153,-2.2155,-2.2159,-2.2123,-2.2181,-2.228,-2.229,-2.2163,-2.2162,-2.2161,0,-2.1902,-2.1951,-2.1997,-2.2009,-2.2032,-2.2054,-2.2065,-2.2085,-2.2104,-2.213,-2.2143,-2.2174,-2.2191,-2.2216,-2.2219,-2.2196,-2.2278,-2.2246,-2.2283,-2.2283,-2.23,-2.2299,-2.2403,-2.2312,-2.2312,-2.2312,-2.2312,0,-2.1981,-2.2022,-2.2024,-2.2052,-2.2099,-2.2096,-2.2142,-2.2151,-2.2169,-2.22,-2.219,-2.2219,-2.2221,-2.2252,-2.2255,-2.2303,-2.2311,-2.2316,-2.2316,-2.2316,-2.2316,-2.2328,-2.2323,-2.2315,-2.2314,-2.2314,-2.2313,0,-2.2055,-2.2058,-2.2107,-2.2125,-2.2131,-2.2164,-2.218,-2.2208,-2.2213,-2.2253,-2.2262,-2.2272,-2.2308,-2.2313,-2.2356,-2.2357,-2.2415,-2.2411,-2.2408,-2.2407,-2.2443,-2.244,-2.2559,-2.2574,-2.2473,-2.2474,-2.2475,0,-2.2105,-2.2136,-2.2157,-2.2176,-2.2188,-2.222,-2.2239,-2.2238,-2.2259,-2.2287,-2.2312,-2.2346,-2.2374,-2.2432,-2.2444,-2.2477,-2.2473,-2.2513,-2.2478,-2.2478,-2.2474,-2.2472,-2.2476,-2.2519,-2.2521,-2.2521,-2.2522,0,-2.2194,-2.2194,-2.2221,-2.225,-2.2273,-2.2296,-2.2317,-2.2334,-2.2336,-2.2361,-2.2397,-2.2418,-2.2461,-2.2496,-2.2529,-2.2542,-2.2533,-2.2533,-2.2543,-2.2544,-2.2541,-2.2543,-2.2426,-2.253,-2.2529,-2.2529,-2.2528,-2.2528,-2.2258,-2.2285,-2.2304,-2.2335,-2.2351,-2.2371,-2.2398,-2.2407,-2.2436,-2.247,-2.2469,-2.2509,-2.2531,-2.2574,-2.2589,-2.2622,-2.2609,-2.2624,-2.2627,-2.2631,-2.2635,-2.2536,-2.2628,-2.2627,-2.2627,-2.2627,-2.2627,0,-2.2346,-2.2357,-2.2386,-2.2416,-2.2441,-2.2429,-2.2452,-2.2475,-2.2509,-2.253,-2.2557,-2.2599,-2.2633,-2.2648,-2.2682,-2.2705,-2.2702,-2.2714,-2.2713,-2.2716,-2.2644,-2.2632,-2.2716,-2.2716,-2.2716,-2.2716,-2.2716,-2.2716,-2.2395,-2.244,-2.2443,-2.2496,-2.2508,-2.2545,-2.256,-2.2579,-2.2596,-2.2643,-2.267,-2.2679,-2.2698,-2.2733,-2.2765,-2.2768,-2.2782,-2.2796,-2.2798,-2.273,-2.2721,-2.2712,-2.2701,-2.2799,-2.2799,-2.2867,-2.2868,-2.2868]},{"header":{"parameterUnit":"m.s-1","parameterCategory":1,"la1":30.2991,"la2":30.254,"lo1":-89.0895,"lo2":-89.0444,"dy":0.0017,"dx":0.0017,"nx":28,"ny":28,"refTime":"2025-04-22T21:00:00:Z","depth":0,"parameterNumber":3,"parameterNumberName":"V-component_of_WINDS"},"data":[0,0,0,0,0,0,0,0,0,0,0,0,0,0,0,0,0,0,0,0,0,0,0,0,0,0,0,0,0,0,0,0,0,0,0,0,0,0,0,0,0,0,0,0,0,0,0,0,0,0,0,0,0,0,0,0,0,0,1.5119,1.5119,0,1.5103,1.5103,1.5103,1.5094,1.5094,1.5094,1.5094,1.5075,1.5074,1.5074,0,0,0,0,0,0,0,0,0,0,0,0,0,1.514,1.514,1.5119,1.5119,1.5119,1.5103,1.5103,1.5103,1.5094,1.5094,1.5094,1.5094,1.5075,1.5074,1.5074,0,0,0,0,0,0,0,0,0,0,0,0,0,1.5128,1.514,1.5119,1.5112,1.5112,1.5103,1.5103,1.5102,1.5094,1.5094,1.5094,1.5094,1.5075,1.5074,1.5074,1.507,0,0,1.5072,1.5071,0,0,0,0,0,0,0,0,1.5129,1.5128,1.5113,1.5113,1.5112,1.51,1.5103,1.5091,1.5094,1.51,1.5094,1.5093,1.5083,1.5082,1.5079,1.5069,1.5068,1.5071,1.5071,1.5071,1.5071,0,0,0,0,0,0,0,1.513,1.5128,1.5113,1.5113,1.5112,1.511,1.5108,1.5101,1.5092,1.51,1.5099,1.5097,1.5083,1.5079,1.5078,1.5068,1.5071,1.5071,1.507,1.507,1.5055,1.5055,0,0,0,0,0,0,1.5132,1.5129,1.5113,1.5112,1.5121,1.5109,1.5107,1.5104,1.5092,1.509,1.5097,1.5097,1.5081,1.5079,1.5078,1.5073,1.5071,1.507,1.507,1.5055,1.5055,1.5055,0,0,0,0,0,0,1.5133,1.5131,1.5114,1.512,1.5118,1.5109,1.5105,1.5104,1.51,1.509,1.5089,1.5096,1.5081,1.5079,1.5072,1.5072,1.507,1.5069,1.5055,1.5055,1.5055,1.5063,0,0,0,0,0,0,1.5133,1.5131,1.513,1.512,1.5118,1.5109,1.5105,1.5103,1.51,1.5099,1.5088,1.5087,1.508,1.5073,1.5072,1.5071,1.5068,1.5055,1.5055,1.5055,1.5063,1.5063,1.5064,0,0,0,0,0,1.5134,1.5132,1.513,1.5128,1.5116,1.5109,1.5107,1.5101,1.51,1.5098,1.5092,1.5087,1.5073,1.5073,1.5071,1.507,1.5055,1.5055,1.5055,1.5062,1.5063,1.5064,0,0,0,0,0,0,1.514,1.513,1.5128,1.5123,1.5117,1.5108,1.5105,1.5102,1.5096,1.5095,1.5087,1.5084,1.5079,1.5074,1.5074,1.5066,1.5063,1.5063,1.5069,1.507,1.5071,1.5072,1.5068,0,0,0,0,0,1.5141,1.5137,1.5128,1.5124,1.5122,1.5114,1.5111,1.5107,1.51,1.5097,1.509,1.5084,1.5078,1.5074,1.5067,1.5062,1.506,1.5061,1.5061,1.5062,1.5061,1.5059,1.5059,1.5056,1.5056,1.5056,0,0,1.5142,1.5136,1.5134,1.5126,1.5121,1.5116,1.5112,1.5107,1.5104,1.5096,1.509,1.5085,1.5077,1.5071,1.5068,1.5067,1.5062,1.5062,1.5062,1.5061,1.5059,1.5059,1.5059,1.5056,1.5056,1.5056,0,0,1.5142,1.5138,1.5134,1.513,1.5123,1.5118,1.5117,1.5109,1.5106,1.51,1.5094,1.509,1.5079,1.5074,1.507,1.507,1.5065,1.5068,1.5071,1.5068,1.5068,1.5069,1.5069,1.5069,1.5068,1.5068,1.5068,0,1.5145,1.5138,1.5133,1.5129,1.5125,1.512,1.5116,1.5112,1.5103,1.51,1.5099,1.5087,1.5081,1.5074,1.5074,1.5071,1.507,1.5069,1.5069,1.5069,1.5069,1.5069,1.5069,1.5068,1.5068,1.5068,1.5068,0,1.5142,1.5137,1.5135,1.5128,1.5124,1.512,1.5114,1.5111,1.5108,1.5103,1.5097,1.509,1.5083,1.5081,1.5077,1.5074,1.5073,1.5071,1.5068,1.507,1.507,1.507,1.5069,1.5069,1.5069,1.5068,0,0,1.5144,1.5135,1.5134,1.5131,1.5124,1.512,1.5116,1.511,1.5108,1.5102,1.5098,1.509,1.5088,1.5084,1.5079,1.5077,1.5078,1.5075,1.5074,1.5075,1.5074,1.5076,1.5076,1.5075,1.5075,1.5075,1.5075,0,1.5143,1.5136,1.5132,1.5127,1.5123,1.5118,1.5115,1.511,1.5106,1.5101,1.5097,1.5091,1.5089,1.5086,1.5084,1.5078,1.5077,1.5078,1.5071,1.5071,1.5073,1.5076,1.5078,1.5078,1.5075,1.5075,1.5075,0,1.5141,1.5136,1.5131,1.5125,1.5123,1.512,1.5115,1.5111,1.5105,1.5102,1.5098,1.5094,1.509,1.5088,1.5082,1.5082,1.5079,1.5076,1.5076,1.5075,1.5073,1.5075,1.5078,1.5078,1.5075,1.5075,1.5075,0,1.5143,1.5136,1.5132,1.5129,1.5122,1.512,1.5117,1.5112,1.5108,1.5104,1.5101,1.5096,1.5093,1.5088,1.5083,1.5082,1.5077,1.5075,1.5074,1.5074,1.5073,1.5073,1.5075,1.5072,1.5072,1.5072,1.5072,0,1.5142,1.5139,1.5133,1.5131,1.5127,1.5122,1.5119,1.5115,1.5111,1.5107,1.5103,1.5099,1.5093,1.5088,1.5084,1.508,1.5078,1.5076,1.5074,1.5076,1.5076,1.5073,1.5073,1.5072,1.5072,1.5072,1.5072,0,1.5144,1.514,1.5135,1.5129,1.5128,1.5125,1.512,1.5117,1.5114,1.511,1.5108,1.5102,1.5097,1.5092,1.5084,1.5081,1.5077,1.5076,1.508,1.5079,1.5079,1.5079,1.5079,1.5079,1.5076,1.5076,1.5076,0,1.5143,1.5141,1.5135,1.5133,1.513,1.5127,1.5124,1.5119,1.5116,1.5111,1.5109,1.5104,1.5099,1.5092,1.5086,1.5081,1.5079,1.508,1.5078,1.508,1.5079,1.5079,1.5079,1.508,1.508,1.508,1.508,0,1.5143,1.5141,1.5138,1.5134,1.5131,1.5127,1.5123,1.5122,1.5116,1.5113,1.5109,1.5106,1.5099,1.5094,1.5089,1.5085,1.5082,1.5081,1.508,1.5081,1.5084,1.5082,1.508,1.5081,1.508,1.508,1.508,1.508,1.5143,1.5141,1.5137,1.5134,1.5131,1.5127,1.5125,1.5121,1.5118,1.5113,1.511,1.5106,1.5101,1.5093,1.509,1.5086,1.5085,1.5084,1.5084,1.5084,1.5084,1.5085,1.5085,1.5085,1.5085,1.5085,1.5085,0,1.5142,1.514,1.5137,1.5132,1.513,1.5128,1.5124,1.5121,1.5118,1.5114,1.511,1.5105,1.5101,1.5096,1.5091,1.5089,1.5087,1.5088,1.5088,1.5087,1.5086,1.5086,1.5089,1.5089,1.5089,1.5089,1.5089,1.5089,1.5142,1.5138,1.5137,1.5132,1.5129,1.5126,1.5123,1.5121,1.5118,1.5113,1.5109,1.5106,1.5102,1.5097,1.5093,1.5091,1.509,1.5091,1.5089,1.5087,1.5087,1.5087,1.5087,1.509,1.509,1.509,1.509,1.509]}]]